Weather History for Monticello, AR

Change the Weather History Date:

Sunday, May 19, 2013

  Actual Average Record
Temperature  
Mean Temperature 78 °F -  
Max Temperature 89 °F 82 °F 95 °F (2006)
Min Temperature 70 °F 58 °F 43 °F (1976)
Cooling Degree Days 14    
Growing Degree Days 28 (Base 50)    
Moisture  
Dew Point 69 °F    
Average Humidity 73    
Maximum Humidity 93    
Minimum Humidity 51    
Precipitation  
Precipitation 0.00 in - - ()
Sea Level Pressure  
Sea Level Pressure 29.91 in    
Wind  
Wind Speed 8 mph (South)    
Max Wind Speed 14 mph    
Max Gust Speed 21 mph    
Visibility 9 miles    
Events      
Averages and records for this station are not official NWS values.
T = Trace of Precipitation, MM = Missing Value Source: NWS Daily Summary

Daily Weather History Graph

Daily Weather History Graph

Search for Another Location

Airport:

Trip Planner

Search our weather history database for the weather conditions in past years. The results will help you decide how hot, cold, wet, or windy it might be!

Date:

Astronomy

May. 19, 2013 Rise Set
Actual Time 6:03 AM CDT 8:03 PM CDT
Civil Twilight 5:35 AM CDT 8:31 PM CDT
Nautical Twilight 5:02 AM CDT 9:05 PM CDT
Astronomical Twilight 4:25 AM CDT 9:41 PM CDT
Moon 2:24 PM CDT (5/19) 2:09 AM CDT (5/19)
Length of Visible Light 14h 56m
Length of Day
14h 00m
Waxing Gibbous, 65% of the Moon is Illuminated
May 19
Waxing Gibbous
May 24
Full
May 31
Last Quarter
Jun 8
New
Jun 16
First Quarter

Hourly Weather History & Observations

Time (CDT) Temp. Heat Index Dew Point Humidity Pressure Visibility Wind Dir Wind Speed Gust Speed Precip Events Conditions
12:53 AM 77.0 °F - 69.1 °F 76% 29.89 in 10.0 mi SSW 8.1 mph - N/A   Clear
1:53 AM 75.0 °F - 69.1 °F 82% 29.89 in 10.0 mi SSW 5.8 mph - N/A   Clear
2:53 AM 73.9 °F - 69.1 °F 85% 29.90 in 10.0 mi SSW 3.5 mph - N/A   Clear
3:53 AM 73.9 °F - 69.1 °F 85% 29.91 in 10.0 mi SSW 5.8 mph - N/A   Clear
4:53 AM 71.1 °F - 69.1 °F 93% 29.91 in 8.0 mi Calm Calm - N/A   Clear
5:53 AM 70.0 °F - 68.0 °F 93% 29.91 in 4.0 mi SSE 4.6 mph - N/A   Partly Cloudy
7:53 AM 71.1 °F - 68.0 °F 90% 29.95 in 7.0 mi South 5.8 mph - N/A   Scattered Clouds
8:00 AM 71.6 °F - 68.0 °F 88% 29.96 in 7.0 mi South 8.1 mph - N/A   Mostly Cloudy
8:53 AM 75.0 °F - 68.0 °F 79% 29.96 in 10.0 mi SSW 8.1 mph 16.1 mph N/A   Mostly Cloudy
9:15 AM 75.2 °F - 68.0 °F 78% 29.96 in 10.0 mi SW 10.4 mph 17.3 mph N/A   Mostly Cloudy
9:42 AM 78.8 °F - 68.0 °F 69% 29.96 in 10.0 mi South 10.4 mph 17.3 mph N/A   Scattered Clouds
9:53 AM 78.1 °F - 68.0 °F 71% 29.95 in 10.0 mi South 11.5 mph 18.4 mph N/A   Partly Cloudy
10:53 AM 82.0 °F 84.9 °F 68.0 °F 62% 29.94 in 10.0 mi South 12.7 mph 20.7 mph N/A   Clear
11:53 AM 84.0 °F 87.8 °F 69.1 °F 61% 29.94 in 10.0 mi SSW 12.7 mph 17.3 mph N/A   Partly Cloudy
12:53 PM 84.9 °F 88.2 °F 68.0 °F 57% 29.92 in 10.0 mi South 11.5 mph - N/A   Partly Cloudy
3:53 PM 87.1 °F 89.9 °F 66.9 °F 51% 29.88 in 10.0 mi SSE 13.8 mph 20.7 mph N/A   Mostly Cloudy
4:53 PM 87.1 °F 90.6 °F 68.0 °F 53% 29.86 in 10.0 mi South 12.7 mph 18.4 mph N/A   Scattered Clouds
5:53 PM 87.1 °F 90.6 °F 68.0 °F 53% 29.85 in 10.0 mi South 9.2 mph 20.7 mph N/A   Clear
6:53 PM 84.9 °F 88.8 °F 69.1 °F 59% 29.84 in 10.0 mi South 6.9 mph - N/A   Clear
7:53 PM 82.9 °F 87.0 °F 70.0 °F 65% 29.83 in 10.0 mi SSE 8.1 mph - N/A   Clear
8:53 PM 80.1 °F 83.2 °F 70.0 °F 71% 29.86 in 10.0 mi South 4.6 mph - N/A   Clear
9:53 PM 79.0 °F - 70.0 °F 74% 29.88 in 10.0 mi South 4.6 mph - N/A   Clear
10:53 PM 78.1 °F - 68.0 °F 71% 29.88 in 10.0 mi South 10.4 mph - N/A   Clear
11:53 PM 77.0 °F - 68.0 °F 74% 29.89 in 10.0 mi South 8.1 mph - N/A   Clear